Weather in Arga

Russia / Amur Oblast     51°16′13″N   128°14′29″E
В апреле 2022 года жителям России запретили посещать сайт meteo.paraplan.net по решению Генеральной прокуратуры. Аудитория сайта уменьшилась в 10 раз. Владельцы сайта не видят смысла в поддержке погодного сервера в таких условиях. Сайт будет закрыт в октябре.
temp.,
°C
wind,
m/s
gust,
m/s
humid.,
%
clouds,
%
prec.,
mm/h
press.,
hPa
HPBL,
m
4 october, tue
tue400:00−1wnw511545 0.0 1020457
03:00−2nw6125736 0.0 1019633
06:00−2nw611595 0.0 1019525
09:00+1nnw710425 0.0 1019870
12:00+4nnw793214 0.0 10181813
15:00+5nnw81028100 0.0 10182401
18:00+2nw494095 0.0 1018193
21:000wnw511525 0.0 1019259
5 october, wed
wed500:00−2wnw410625 0.0 1019202
03:00−2wnw410681 0.0 1019270
06:00−3wnw49720 0.0 1019272
09:00+1nw68525 0.0 1019672
12:00+5nw783828 0.0 10181759
15:00+6nw71033100 0.0 10172321
18:00+3nw494563 0.0 1018197
21:00+1wnw4105634 0.0 1019247
6 october, thu
thu600:00−1wnw511560 0.0 1020298
03:00−2w410645 0.0 1020233
06:00−2w37625 0.0 1020138
09:00+3wnw59415 0.0 1020586
12:00+6wnw68290 0.0 10181554
15:00+7wnw57305 0.0 10171909
18:00+3wnw22425 0.0 101814
21:00+1w22475 0.0 101916
7 october, fri
fri700:000wnw22535 0.0 101920
03:00−1wnw33575 0.0 102031
06:00−1wnw22595 0.0 102112
09:00+4wnw244350 0.0 1022301
12:00+8wnw353258 0.0 10211234
15:00+9wnw4531100 0.0 10211466
18:00+5nw2243100 0.0 102210
21:00+4nw114799 0.0 102310
8 october, sat
sat800:00+2sw1152100 0.0 102310
03:00+1w005698 0.0 102410
06:000nne00619 0.0 102510
09:00+4nne234861 0.0 1025230
12:00+8ne224024 0.0 1025950
15:00+9nne333927 0.0 10241431
18:00+5ne2254100 0.0 102511
21:00+3nne336630 0.0 102530